Location: ActonStarParty
(42.4766°N, 71.4538°W)
Time: 22:39:41
(UTC-04:00)

Cosmos 1825 - Pass Details

Date: 19 April 2018
Orbit: 504 x 512 km, 82.5° (Epoch: 24 May)

Event Time Altitude Azimuth Distance (km) Brightness Sun altitude
Rises 21:21:45 0° 352° (N) 2,628 6.5 -18.8°
Reaches altitude 10° 21:23:54 10° 353° (N) 1,736 5.5 -19.2°
Maximum altitude 21:27:42 87° 80° (E) 515 2.0 -19.7°
Enters shadow 21:28:26 57° 167° (SSE) 606 2.2 -19.8°
